User: anonymous   Login
Location: Newark
(5.8900°S, 42.6378°W)
Time: 16:03:08
(UTC+00:00)
Language:

YUBILEINY - Orbit

View from above orbital plane
View from above orbital plane
View from above satellite
View from above satellite

Ground track
Ground track

The orbit data is extracted from the following two-line orbital elements,

1 32953U 08025A   19290.04840909  .00000020  00000-0  75656-4 0  9997
2 32953  82.5002  69.9047 0018968 225.2203 134.7340 12.43091863517264
Epoch (UTC): 17 October 2019 01:09:42
Eccentricity: 0.0018968
inclination: 82.5002°
perigee height: 1478 km
apogee height: 1508 km
right ascension of ascending node: 69.9047°
argument of perigee: 225.2203°
revolutions per day: 12.43091863
mean anomaly at epoch: 134.7340°
orbit number at epoch: 51726

The dashed part of the orbit path shows where the satellite is in the earth's shadow,  

DLR